Location: Pella
(41.4080°N, 92.9160°W)
Time: 13:52:01
(UTC-06:00)

Iridium 91 - Visible Passes

Search period start: 02 December 2016 00:00
Search period end: 12 December 2016 00:00
Orbit: 776 x 779 km, 86.4° (Epoch: 02 December)

Date Brightness Start Highest point End Pass type
(mag) Time Alt. Az. Time Alt. Az. Time Alt. Az.
04 Dec 7.8 06:38:01 10° NNE 06:42:21 26° ENE 06:46:40 10° SE visible
05 Dec 8.3 06:05:39 10° NE 06:08:30 15° ENE 06:11:19 10° ESE visible
07 Dec 7.1 06:37:44 10° NNE 06:42:34 37° E 06:47:22 10° SSE visible
08 Dec 8.1 06:04:54 10° NNE 06:08:48 21° ENE 06:12:40 10° SE visible
09 Dec 8.5 05:33:18 10° NE 05:34:53 11° ENE 05:36:28 10° E visible
10 Dec 6.4 06:37:37 10° N 06:42:44 53° E 06:47:49 10° SSE visible
10 Dec 7.7 19:34:17 10° S 19:35:19 16° S 19:35:19 16° S visible
11 Dec 7.5 06:04:30 10° NNE 06:09:03 29° E 06:13:33 10° SE visible
11 Dec 6.9 19:00:51 10° SSE 19:03:01 25° SSE 19:03:01 25° SSE visible
